Flag for Germany Weather past 2 weeks in Regensburg, Bavaria, Germany

Now
68 °F

Scattered clouds.


Feels Like: 68 °F
Forecast: 46 / 71 °F
Wind: 3 mph from Southwest

Location: Regensburg

Current Time: Aug 21, 2014 at 2:35:29 PM

Latest Report: Aug 21, 2014 at 2:00 PM


Visibility: 22 mi

Pressure: 30.02 "Hg

Humidity: 44%

Dew point: 45 °F

Location of RegensburgLocation

Historic Weather in Regensburg — Graph

°F

Regensburg temperature yesterday

Maximum temperature yesterday: 66 °F (at 2:00 PM)
Minimum temperature yesterday: 48 °F (at 6:00 AM)
Average temperature yesterday: 59 °F

Past Weeks' High & Low Weather Summary

 TemperatureHumidityPressure
High86 °F (Aug 10, 6:00 PM)96% (Aug 10, 4:00 AM)30.13 "Hg (Aug 10, 4:00 AM)
Low48 °F (Aug 20, 6:00 AM)33% (Aug 10, 6:00 PM)29.66 "Hg (Aug 13, 5:00 PM)
Average63 °F73%29.94 "Hg
* Reported Aug 6 1:00 PM — Aug 21 1:00 PM, Regensburg, Weather by CustomWeather, © 2014

Note: Actual official high and low records may vary slightly from our data, if they occured in-between our weather recording intervals... More about our weather records

Advertising

Regensburg weather history for previous 24 hours

 ConditionsComfort  
Time TempWeatherWind HumidityBarometerVisibility
1:00 PM
Aug 21
64 °FOvercast.3 mph48%30.04 "Hg37 mi
12:00 PM66 °FScattered clouds.3 mph47%30.04 "Hg43 mi
11:00 AM65 °FScattered clouds.3 mph55%30.04 "Hg31 mi
10:00 AM62 °FSunny.2 mph66%30.04 "Hg28 mi
9:00 AM58 °FOvercast.2 mph75%30.05 "Hg19 mi
8:00 AM55 °FOvercast.1 mph86%30.04 "Hg11 mi
7:00 AM54 °FOvercast.1 mph89%30.04 "Hg12 mi
6:00 AM54 °FLow clouds.1 mph93%30.03 "Hg6 mi
5:00 AM53 °FOvercast.1 mph94%30.03 "Hg6 mi
4:00 AM54 °FFog.No wind94%30.02 "Hg4 mi
3:00 AM55 °FOvercast.1 mph91%30.01 "Hg5 mi
2:00 AM56 °FOvercast.1 mph87%30.02 "Hg7 mi
1:00 AM56 °FOvercast.2 mph80%30.02 "Hg19 mi
12:00 AM58 °FOvercast.2 mph74%30.01 "Hg19 mi
11:00 PM
Aug 20
58 °FOvercast.2 mph71%30.01 "Hg22 mi
10:00 PM57 °FOvercast.1 mph71%30.01 "Hg19 mi
9:00 PM59 °FOvercast.1 mph67%30.00 "Hg40 mi
8:00 PM61 °FOvercast.2 mph61%29.98 "Hg43 mi
7:00 PM63 °FOvercast.2 mph54%29.98 "Hg43 mi
6:00 PM66 °FOvercast.2 mph48%29.97 "Hg34 mi
5:00 PM65 °FOvercast.1 mph51%29.98 "Hg40 mi
4:00 PM65 °FOvercast.2 mph48%29.99 "Hg40 mi
3:00 PM66 °FPartly sunny.3 mph48%30.00 "Hg37 mi
2:00 PM66 °FOvercast.2 mph46%30.00 "Hg31 mi
Weather by CustomWeather, © 2014

See weather overviewHow to use our weather pages